Location: Lafig�re
(44.4503°N, 4.0357°E)
Time: 07:49:20
(UTC+00:00)

Cosmos 1125 Rocket - Pass Details

Date: 25 January 2021
Orbit: 756 x 781 km, 74.0° (Epoch: 05 March)

Event Time Altitude Azimuth Distance (km) Brightness Sun altitude
Rises 19:10:05 0° 181° (S) 3,205 6.7 -26.0°
Reaches altitude 10° 19:12:31 10° 175° (S) 2,287 5.9 -26.5°
Enters shadow 19:12:40 11° 174° (S) 2,228 5.8 -26.5°
